sat.trackr.live / text

‹ back to catalog

STARLINK-36469

NORAD 67360 · 2026-003AC

PAYLOAD ACTIVE UNKNOWN

§ Identity

Operator
Country
US
Launch date
2026-01-09
Launch site
AFETR
Launch vehicle
Mass (kg)
RCS (m²)

Purposes: comms

External: N2YO · Heavens-Above · Gunter

§ Orbital elements

Epoch: 2026-05-24T18:14:57.440256Z

Period
94.27 min
Inclination
43.0023°
Eccentricity
0.0003345
Mean motion
15.27592489 rev/d
Perigee alt
480.7 km
Apogee alt
485.3 km
Semi-major
6,861.1 km
B*
4.0784e-4
RAAN
157.8361°
Arg perigee
278.6794°
Mean anomaly
81.3678°
Rev number
2,045

§ Raw data

STARLINK-364691 67360U 26003AC  26144.76038704  .00010982  00000+0  40784-3 0  99902 67360  43.0023 157.8361 0003345 278.6794  81.3678 15.27592489 20451

JSON: /api/v1/satellites/67360 · /tle

For live sub-satellite position, see the globe view (requires WebGL).

§ Visibility from observer

Set your observer location to see the next 7 days of passes ≥ 10°. The values pass through the URL so the page stays shareable.

No JS? Fill the form by hand. The geolocation button needs JavaScript.